Cloud_Cover
0 0 0 0 7 0 1 0 1 0 3 6 92 100 100 100 56 46 7 5 5 43 80 58 79 26 5 5 2 1 1 14 56
0 0 0 0 0 0 2 0 0 0 0 0 3 5 89 100 100 85 54 79 13 5 12 73 74 99 80 8 5 6 33 100 100
0 0 0 0 0 0 0 0 16 0 0 3 2 5 12 97 100 100 95 19 50 18 5 18 29 100 100 96 29 77 100 100 85
0 0 0 0 0 0 0 0 0 0 0 0 1 5 5 2 8 81 91 42 31 80 14 5 5 5 4 98 87 83 100 100 59
0 0 0 0 0 0 0 0 0 0 1 12 0 0 0 17 3 27 13 84 89 98 81 19 28 6 5 18 70 45 100 100 81
0 0 0 0 0 0 0 0 0 0 0 0 6 37 35 22 37 20 10 42 14 30 53 88 45 69 80 80 22 45 94 61 92
0 0 0 0 0 0 0 0 0 0 0 0 0 26 92 85 39 36 0 44 35 13 5 53 93 80 82 100 100 100 88 23 90
0 0 0 0 0 0 0 0 0 0 0 0 0 0 95 100 100 47 0 0 72 85 14 39 68 55 6 49 100 100 100 100 77
0 0 0 0 0 0 0 0 0 0 0 0 0 0 14 100 100 100 47 4 15 93 96 100 42 22 87 76 55 99 80 94 15
0 0 0 0 0 0 0 0 0 0 0 0 0 0 0 0 88 100 100 88 32 73 72 100 100 53 53 100 96 94 97 63 67
0 0 0 0 0 0 0 0 0 0 0 0 0 0 0 0 0 46 100 100 91 82 92 46 88 100 66 98 69 66 99 100 94
0 0 0 0 0 0 0 0 0 0 4 0 0 0 0 0 0 0 3 88 100 91 60 90 85 100 96 41 43 36 50 100 100
0 0 1 0 0 12 26 6 23 1 4 0 0 0 0 0 0 1 0 0 82 100 99 48 56 100 100 100 100 100 98 100 100
0 4 5 0 15 0 68 100 100 100 13 0 0 0 0 0 20 100 5 0 23 48 96 31 92 100 100 100 100 100 100 100 100
0 0 0 3 5 48 100 100 100 100 86 5 0 0 0 2 10 100 6 10 0 57 43 84 100 100 100 98 100 100 100 100 100
0 1 3 5 6 83 100 100 70 100 100 36 0 0 0 0 22 94 40 37 27 47 69 94 100 100 100 74 66 100 100 100 100
0 0 0 0 5 45 44 99 99 100 97 100 2 2 5 5 54 75 91 100 90 100 100 100 100 100 100 100 100 100 100 100 100
0 0 0 0 5 34 5 5 98 96 95 100 88 3 46 25 92 99 100 100 100 100 100 100 100 100 100 100 100 100 100 100 100
0 0 5 6 2 7 5 5 15 97 100 68 100 47 8 95 43 100 100 100 100 100 100 100 100 100 100 100 100 100 100 100 100
43 51 7 1 3 5 5 25 8 34 100 59 95 100 80 100 100 54 100 100 100 100 100 100 100 100 100 100 100 100 100 100 100